sat.trackr.live / text

‹ back to catalog

PRAETORIAN SDA_621

NORAD 65584 · 2025-203V

PAYLOAD ACTIVE UNKNOWN

§ Identity

Operator
Country
US
Launch date
2025-09-10
Launch site
AFWTR
Launch vehicle
Mass (kg)
RCS (m²)

Purposes: military

External: N2YO · Heavens-Above · Gunter

§ Orbital elements

Epoch: 2026-09-19T19:21:01.245024Z

Period
104.06 min
Inclination
81.2987°
Eccentricity
0.0006302
Mean motion
13.83809580 rev/d
Perigee alt
945.8 km
Apogee alt
955.0 km
Semi-major
7,328.5 km
B*
3.8192e-5
RAAN
283.1500°
Arg perigee
292.4575°
Mean anomaly
67.5914°
Rev number
5,178

§ Raw data

PRAETORIAN SDA_6211 65584U 25203V   26262.80626441  .00000054  00000+0  38192-4 0  99942 65584  81.2987 283.1500 0006302 292.4575  67.5914 13.83809580 51787

JSON: /api/v1/satellites/65584 · /tle

For live sub-satellite position, see the globe view (requires WebGL).

§ Visibility from observer

Set your observer location to see the next 7 days of passes ≥ 10°. The values pass through the URL so the page stays shareable.

No JS? Fill the form by hand. The geolocation button needs JavaScript.